When you browse on this site, cookies collect data to enhance your experience and personalize the content and advertising you see.
Visit our Privacy Policy to learn more. By continuing to use the site, you agree to this use of cookies and data.
  • In Deutschland
  • Länderverzeichnis
  • Für 7 Tage
  • Wassertemperatur
  • Satellitenkarten
  • Wetterkarte
  • Widgets
  • user-avatar
    Anmelden

    Stündliche Wetter Suhoy

    Heute, 19 Februar, Dienstag

    Zeit Temperatur Niederschläge Wind Luftdruck Luftfeuchtigkeit
    00:00 -4°C° 0 mm 6 m/S 762 mmHg 61%
    01:00 -4°C° 0 mm 6 m/S 763 mmHg 60%
    02:00 -4°C° 0 mm 6 m/S 763 mmHg 59%
    03:00 -4°C° 0 mm 4 m/S 763 mmHg 61%
    04:00 -4°C° 0 mm 4 m/S 763 mmHg 64%
    05:00 -4°C° 0 mm 4 m/S 764 mmHg 67%
    06:00 -5°C° 0 mm 4 m/S 764 mmHg 69%
    07:00 -5°C° 0 mm 5 m/S 765 mmHg 67%
    08:00 -5°C° 0 mm 5 m/S 766 mmHg 64%
    09:00 -5°C° 0 mm 5 m/S 766 mmHg 60%
    10:00 -4°C° 0 mm 5 m/S 766 mmHg 56%
    11:00 -4°C° 0 mm 5 m/S 767 mmHg 51%
    12:00 -2°C° 0 mm 4 m/S 767 mmHg 46%
    13:00 -2°C° 0 mm 4 m/S 767 mmHg 45%
    14:00 -1°C° 0 mm 4 m/S 767 mmHg 44%
    15:00 0°C° 0 mm 4 m/S 767 mmHg 42%
    16:00 0°C° 0 mm 3 m/S 767 mmHg 47%
    17:00 -1°C° 0 mm 3 m/S 768 mmHg 53%
    18:00 -2°C° 0 mm 2 m/S 768 mmHg 58%
    19:00 -2°C° 0 mm 2 m/S 768 mmHg 60%
    20:00 -1°C° 0 mm 1 m/S 768 mmHg 63%
    21:00 -1°C° 0 mm 1 m/S 768 mmHg 65%
    22:00 -1°C° 0 mm 1 m/S 768 mmHg 64%
    23:00 -1°C° 0 mm 1 m/S 768 mmHg 63%

    Morgen, 20 Februar, Mittwoch

    Zeit Temperatur Niederschläge Wind Luftdruck Luftfeuchtigkeit
    00:00 -1°C° 0 mm 1 m/S 768 mmHg 62%
    01:00 -1°C° 0 mm 1 m/S 767 mmHg 61%
    02:00 -1°C° 0 mm 1 m/S 767 mmHg 60%
    03:00 -3°C° 0 mm 2 m/S 767 mmHg 59%
    04:00 -3°C° 0 mm 2 m/S 767 mmHg 59%
    05:00 -3°C° 0 mm 2 m/S 766 mmHg 58%
    06:00 -3°C° 0 mm 2 m/S 766 mmHg 58%
    07:00 -2°C° 0 mm 2 m/S 766 mmHg 55%
    08:00 -2°C° 0 mm 3 m/S 765 mmHg 51%
    09:00 -1°C° 0 mm 3 m/S 765 mmHg 48%
    10:00 +1°C° 0 mm 3 m/S 765 mmHg 43%
    11:00 +2°C° 0 mm 3 m/S 764 mmHg 39%
    12:00 +4°C° 0 mm 3 m/S 764 mmHg 34%
    13:00 +5°C° 0 mm 4 m/S 764 mmHg 37%
    14:00 +5°C° 0 mm 4 m/S 763 mmHg 40%
    15:00 +6°C° 0 mm 4 m/S 762 mmHg 42%
    16:00 +5°C° 0 mm 3 m/S 762 mmHg 50%
    17:00 +3°C° 0 mm 3 m/S 762 mmHg 58%
    18:00 +2°C° 0 mm 3 m/S 762 mmHg 66%
    19:00 +2°C° 0 mm 3 m/S 762 mmHg 70%
    20:00 +1°C° 0 mm 3 m/S 761 mmHg 74%
    21:00 +1°C° 0 mm 3 m/S 761 mmHg 78%
    22:00 +1°C° 0 mm 3 m/S 761 mmHg 79%
    23:00 0°C° 0 mm 3 m/S 761 mmHg 81%

    übermorgen, 21 Februar, Donnerstag

    Zeit Temperatur Niederschläge Wind Luftdruck Luftfeuchtigkeit
    00:00 0°C° 0 mm 3 m/S 761 mmHg 83%
    01:00 0°C° 0 mm 3 m/S 760 mmHg 85%
    02:00 -1°C° 0 mm 4 m/S 760 mmHg 87%
    03:00 -1°C° 0 mm 4 m/S 760 mmHg 89%
    04:00 -1°C° 0 mm 4 m/S 760 mmHg 90%
    05:00 -1°C° 0 mm 4 m/S 759 mmHg 91%
    06:00 0°C° 0 mm 4 m/S 759 mmHg 92%
    07:00 0°C° 0 mm 5 m/S 759 mmHg 91%
    08:00 +1°C° 0 mm 6 m/S 759 mmHg 89%
    09:00 +2°C° 0 mm 6 m/S 759 mmHg 88%
    10:00 +3°C° 0.1 mm 7 m/S 758 mmHg 84%
    11:00 +4°C° 0.1 mm 7 m/S 758 mmHg 81%
    12:00 +4°C° 0.1 mm 8 m/S 757 mmHg 78%
    13:00 +4°C° 0.2 mm 8 m/S 757 mmHg 78%
    14:00 +4°C° 0.2 mm 7 m/S 756 mmHg 78%
    15:00 +4°C° 0.2 mm 7 m/S 756 mmHg 78%
    16:00 +4°C° 0 mm 7 m/S 756 mmHg 72%
    17:00 +3°C° 0 mm 7 m/S 756 mmHg 66%
    18:00 +3°C° 0 mm 6 m/S 756 mmHg 60%
    19:00 +2°C° 0.3 mm 7 m/S 756 mmHg 65%
    20:00 +2°C° 0.3 mm 7 m/S 756 mmHg 69%
    21:00 0°C° 0.3 mm 7 m/S 757 mmHg 74%
    22:00 -1°C° 0.1 mm 7 m/S 757 mmHg 70%
    23:00 -2°C° 0.1 mm 7 m/S 758 mmHg 66%

    22 Februar, Freitag

    Zeit Temperatur Niederschläge Wind Luftdruck Luftfeuchtigkeit
    00:00 -3°C° 0.1 mm 6 m/S 758 mmHg 61%
    01:00 -4°C° 0 mm 5 m/S 758 mmHg 63%
    02:00 -4°C° 0 mm 5 m/S 758 mmHg 64%
    03:00 -4°C° 0 mm 4 m/S 759 mmHg 66%
    04:00 -4°C° 0 mm 4 m/S 759 mmHg 65%
    05:00 -4°C° 0 mm 4 m/S 759 mmHg 64%
    06:00 -4°C° 0 mm 4 m/S 759 mmHg 64%
    07:00 -4°C° 0 mm 5 m/S 759 mmHg 61%
    08:00 -4°C° 0 mm 5 m/S 759 mmHg 57%
    09:00 -3°C° 0 mm 6 m/S 759 mmHg 54%
    10:00 -3°C° 0 mm 6 m/S 759 mmHg 52%
    11:00 -2°C° 0 mm 6 m/S 759 mmHg 49%
    12:00 -1°C° 0 mm 6 m/S 759 mmHg 47%
    13:00 -1°C° 0 mm 6 m/S 758 mmHg 47%
    14:00 0°C° 0 mm 5 m/S 758 mmHg 48%
    15:00 0°C° 0 mm 5 m/S 758 mmHg 48%
    16:00 -1°C° 0.2 mm 4 m/S 758 mmHg 60%
    17:00 -1°C° 0.2 mm 3 m/S 758 mmHg 72%
    18:00 -2°C° 0.2 mm 3 m/S 757 mmHg 84%
    19:00 -2°C° 0.8 mm 3 m/S 758 mmHg 87%
    20:00 -4°C° 0.8 mm 4 m/S 758 mmHg 90%
    21:00 -4°C° 0.8 mm 4 m/S 758 mmHg 93%
    22:00 -5°C° 0.9 mm 5 m/S 758 mmHg 93%
    23:00 -6°C° 0.9 mm 5 m/S 758 mmHg 93%

    23 Februar, Samstag

    Zeit Temperatur Niederschläge Wind Luftdruck Luftfeuchtigkeit
    00:00 -6°C° 0.9 mm 5 m/S 758 mmHg 93%
    01:00 -8°C° 0.4 mm 6 m/S 759 mmHg 93%
    02:00 -8°C° 0.4 mm 6 m/S 759 mmHg 92%
    03:00 -9°C° 0.4 mm 6 m/S 759 mmHg 92%
    04:00 -9°C° 0.3 mm 6 m/S 759 mmHg 92%
    05:00 -10°C° 0.3 mm 6 m/S 760 mmHg 92%
    06:00 -10°C° 0.3 mm 6 m/S 760 mmHg 92%
    07:00 -10°C° 0.4 mm 6 m/S 760 mmHg 92%
    08:00 -10°C° 0.4 mm 6 m/S 761 mmHg 92%
    09:00 -10°C° 0.4 mm 6 m/S 761 mmHg 92%
    10:00 -10°C° 0.6 mm 6 m/S 761 mmHg 92%
    11:00 -10°C° 0.6 mm 6 m/S 761 mmHg 93%
    12:00 -10°C° 0.6 mm 6 m/S 762 mmHg 93%
    13:00 -9°C° 0.5 mm 6 m/S 762 mmHg 93%
    14:00 -9°C° 0.5 mm 6 m/S 762 mmHg 93%
    15:00 -8°C° 0.5 mm 5 m/S 762 mmHg 93%
    16:00 -8°C° 0.5 mm 5 m/S 763 mmHg 93%
    17:00 -8°C° 0.5 mm 5 m/S 763 mmHg 93%
    18:00 -10°C° 0.5 mm 5 m/S 763 mmHg 94%
    19:00 -10°C° 0.5 mm 5 m/S 764 mmHg 94%
    20:00 -10°C° 0.5 mm 5 m/S 764 mmHg 94%
    21:00 -10°C° 0.5 mm 5 m/S 764 mmHg 94%
    22:00 -9°C° 0.3 mm 4 m/S 764 mmHg 94%
    23:00 -10°C° 0.3 mm 4 m/S 764 mmHg 94%

    24 Februar, Sonntag

    Zeit Temperatur Niederschläge Wind Luftdruck Luftfeuchtigkeit
    00:00 -10°C° 0.3 mm 4 m/S 764 mmHg 94%
    01:00 -10°C° 0.3 mm 4 m/S 764 mmHg 94%
    02:00 -10°C° 0.3 mm 4 m/S 764 mmHg 95%
    03:00 -9°C° 0.3 mm 3 m/S 764 mmHg 95%
    04:00 -9°C° 0.2 mm 3 m/S 764 mmHg 95%
    05:00 -9°C° 0.2 mm 3 m/S 764 mmHg 95%
    06:00 -9°C° 0.2 mm 3 m/S 764 mmHg 96%
    07:00 -9°C° 0.1 mm 3 m/S 765 mmHg 95%
    08:00 -8°C° 0.1 mm 2 m/S 765 mmHg 95%
    09:00 -8°C° 0.1 mm 2 m/S 765 mmHg 94%
    10:00 -7°C° 0.1 mm 2 m/S 765 mmHg 93%
    11:00 -6°C° 0.1 mm 2 m/S 765 mmHg 91%
    12:00 -6°C° 0.1 mm 2 m/S 766 mmHg 90%
    13:00 -5°C° 0.1 mm 2 m/S 765 mmHg 90%
    14:00 -5°C° 0.1 mm 2 m/S 765 mmHg 89%
    15:00 -5°C° 0.1 mm 2 m/S 765 mmHg 89%
    16:00 -5°C° 0.1 mm 2 m/S 765 mmHg 91%
    17:00 -5°C° 0.1 mm 2 m/S 766 mmHg 93%
    18:00 -5°C° 0.1 mm 2 m/S 766 mmHg 95%
    19:00 -6°C° 0.2 mm 2 m/S 766 mmHg 95%
    20:00 -6°C° 0.2 mm 2 m/S 766 mmHg 96%
    21:00 -6°C° 0.2 mm 2 m/S 766 mmHg 97%
    22:00 -6°C° 0.1 mm 2 m/S 766 mmHg 96%
    23:00 -6°C° 0.1 mm 2 m/S 766 mmHg 96%
    Mehr zeigen